[[{"header":{"parameterUnit":"m.s-1","parameterCategory":1,"la1":30.2991,"la2":30.254,"lo1":-89.0895,"lo2":-89.0444,"dy":0.0017,"dx":0.0017,"nx":28,"ny":28,"refTime":"2025-03-20T03:00:00:Z","depth":0,"parameterNumber":2,"parameterNumberName":"U-component_of_WINDS"},"data":[0,0,0,0,0,0,0,0,0,0,0,0,0,0,0,0,0,0,0,0,0,0,0,0,0,0,0,0,0,0,0,0,0,0,0,0,0,0,0,0,0,0,0,0,0,0,0,0,0,0,0,0,0,0,0,0,0,0,1.5947,1.5949,0,1.6096,1.6097,1.6099,1.6134,1.6133,1.6132,1.6131,1.6281,1.6286,1.6291,0,0,0,0,0,0,0,0,0,0,0,0,0,1.5689,1.5694,1.5947,1.5949,1.5951,1.6095,1.6097,1.6099,1.6134,1.6133,1.6131,1.613,1.6279,1.6285,1.6291,0,0,0,0,0,0,0,0,0,0,0,0,0,1.5816,1.5695,1.5946,1.5985,1.599,1.6095,1.6097,1.61,1.6134,1.6132,1.6131,1.613,1.6277,1.6285,1.6292,1.6368,0,0,1.6315,1.6318,0,0,0,0,0,0,0,0,1.5808,1.5825,1.5978,1.5983,1.5988,1.6095,1.6062,1.619,1.6134,1.6079,1.6131,1.6129,1.622,1.6232,1.6263,1.6375,1.6382,1.6315,1.632,1.6323,1.6325,0,0,0,0,0,0,0,1.58,1.5819,1.6006,1.598,1.5986,1.5994,1.601,1.6086,1.6156,1.6084,1.6087,1.6104,1.6223,1.6256,1.6267,1.6384,1.6315,1.6322,1.6326,1.6329,1.6564,1.6566,0,0,0,0,0,0,1.5785,1.5811,1.6001,1.601,1.5893,1.6,1.6018,1.6062,1.6156,1.6168,1.6105,1.6105,1.6244,1.6258,1.6272,1.6367,1.6323,1.633,1.6334,1.6562,1.6564,1.6566,0,0,0,0,0,0,1.5779,1.5801,1.5995,1.5912,1.5937,1.6006,1.6055,1.6066,1.6099,1.6172,1.6184,1.6127,1.6243,1.6262,1.6344,1.6372,1.6333,1.634,1.656,1.6563,1.6565,1.6556,0,0,0,0,0,0,1.5771,1.5799,1.5829,1.5912,1.5941,1.6065,1.6057,1.607,1.6112,1.6113,1.6195,1.6207,1.6244,1.6333,1.6351,1.6382,1.6346,1.6558,1.6561,1.6564,1.6554,1.6558,1.6562,0,0,0,0,0,1.5762,1.5821,1.5831,1.5854,1.5981,1.6066,1.6083,1.6124,1.6114,1.6145,1.6191,1.6205,1.6366,1.6341,1.6362,1.6395,1.6556,1.656,1.6564,1.6552,1.6557,1.6561,0,0,0,0,0,0,1.574,1.5833,1.5845,1.5932,1.5991,1.6072,1.6112,1.6128,1.6191,1.6189,1.6238,1.6256,1.6334,1.6373,1.6343,1.6473,1.6461,1.6469,1.6445,1.645,1.6453,1.6442,1.6352,0,0,0,0,0,1.5745,1.5807,1.5885,1.5955,1.5984,1.6043,1.6081,1.6108,1.6171,1.6196,1.6248,1.6308,1.6372,1.6413,1.6476,1.656,1.6577,1.6593,1.6597,1.6599,1.6606,1.6651,1.6659,1.6579,1.6579,1.6579,0,0,1.5756,1.5815,1.5851,1.5952,1.6,1.6063,1.6063,1.613,1.6176,1.6206,1.6286,1.6326,1.6396,1.6478,1.6517,1.6513,1.6632,1.6605,1.6606,1.6611,1.6656,1.6663,1.667,1.6582,1.6582,1.6581,0,0,1.5809,1.586,1.5923,1.5972,1.6046,1.6084,1.6099,1.6178,1.6206,1.6287,1.631,1.6365,1.6475,1.6523,1.6562,1.6631,1.6645,1.665,1.6669,1.6713,1.6719,1.6725,1.6748,1.6756,1.6657,1.6657,1.6657,0,1.5814,1.591,1.5953,1.6018,1.6061,1.6091,1.6154,1.6199,1.6289,1.6317,1.6311,1.6449,1.6498,1.6591,1.6608,1.6639,1.6656,1.6641,1.6715,1.6721,1.6727,1.6749,1.6758,1.6657,1.6657,1.6657,1.6657,0,1.5911,1.5977,1.6018,1.6105,1.6152,1.6216,1.6268,1.6311,1.6333,1.6371,1.6453,1.6513,1.6587,1.6612,1.6634,1.6708,1.6703,1.6705,1.6694,1.6734,1.6756,1.6765,1.6657,1.6657,1.6657,1.6657,0,0,1.5954,1.6063,1.6077,1.6116,1.6199,1.6251,1.6315,1.6388,1.6423,1.6484,1.6538,1.663,1.6632,1.6676,1.6704,1.6742,1.6791,1.674,1.6742,1.6746,1.6874,1.687,1.688,1.6801,1.6803,1.6804,1.6867,0,1.6015,1.6132,1.6173,1.6268,1.6329,1.6357,1.6413,1.6469,1.6506,1.6562,1.6603,1.6667,1.6666,1.6693,1.6732,1.6777,1.6817,1.6773,1.685,1.6852,1.6831,1.6892,1.6889,1.6945,1.6876,1.6878,1.6879,0,1.6103,1.6165,1.6267,1.6341,1.6368,1.6417,1.6487,1.6541,1.6604,1.6629,1.6677,1.6702,1.6768,1.6753,1.6845,1.6814,1.6848,1.6874,1.6878,1.6886,1.6867,1.69,1.6965,1.6973,1.6893,1.6892,1.6891,0,1.6122,1.6231,1.6306,1.6339,1.6427,1.6461,1.6499,1.6562,1.6603,1.6663,1.669,1.6758,1.6794,1.6845,1.6887,1.6873,1.6974,1.6963,1.6995,1.6994,1.7015,1.7013,1.7085,1.7038,1.7038,1.7038,1.7038,0,1.6186,1.6247,1.6316,1.6361,1.643,1.6475,1.6541,1.6581,1.6636,1.6688,1.6717,1.6766,1.6819,1.6874,1.6907,1.6977,1.6994,1.7014,1.7022,1.7011,1.7008,1.7034,1.703,1.704,1.704,1.7039,1.7039,0,1.6219,1.6268,1.6351,1.6428,1.6448,1.6495,1.656,1.6605,1.6643,1.671,1.6728,1.6788,1.6854,1.6901,1.6987,1.7009,1.7083,1.7092,1.7062,1.7066,1.7095,1.7091,1.7184,1.7198,1.7143,1.7144,1.7144,0,1.6256,1.6304,1.6385,1.6423,1.6462,1.6522,1.6564,1.661,1.6652,1.6727,1.6762,1.6831,1.6888,1.6992,1.7043,1.7108,1.7117,1.7146,1.7127,1.7114,1.7116,1.7112,1.7116,1.7148,1.7148,1.7149,1.7149,0,1.6316,1.6338,1.6398,1.6466,1.6515,1.657,1.6626,1.6655,1.6711,1.6756,1.6825,1.6869,1.6956,1.7023,1.7092,1.7131,1.7148,1.7154,1.7165,1.7154,1.7134,1.7144,1.7068,1.7152,1.7151,1.7151,1.7151,1.7151,1.6352,1.6395,1.6459,1.6524,1.657,1.6621,1.6667,1.6711,1.6769,1.6843,1.6867,1.6937,1.6998,1.7093,1.7132,1.7187,1.7185,1.7201,1.7205,1.7208,1.7207,1.7126,1.72,1.72,1.72,1.72,1.72,0,1.6412,1.6455,1.6514,1.6591,1.6642,1.6655,1.6717,1.6758,1.682,1.6875,1.6931,1.7008,1.7073,1.7128,1.7195,1.7228,1.7238,1.7244,1.7241,1.725,1.7205,1.7189,1.7235,1.7235,1.7235,1.7235,1.7235,1.7235,1.645,1.6522,1.6551,1.6646,1.6688,1.6758,1.6791,1.6838,1.6882,1.6968,1.7022,1.7058,1.7113,1.7183,1.7243,1.7257,1.728,1.7284,1.73,1.7257,1.7253,1.7249,1.7234,1.7289,1.7289,1.734,1.734,1.734]},{"header":{"parameterUnit":"m.s-1","parameterCategory":1,"la1":30.2991,"la2":30.254,"lo1":-89.0895,"lo2":-89.0444,"dy":0.0017,"dx":0.0017,"nx":28,"ny":28,"refTime":"2025-03-20T03:00:00:Z","depth":0,"parameterNumber":3,"parameterNumberName":"V-component_of_WINDS"},"data":[0,0,0,0,0,0,0,0,0,0,0,0,0,0,0,0,0,0,0,0,0,0,0,0,0,0,0,0,0,0,0,0,0,0,0,0,0,0,0,0,0,0,0,0,0,0,0,0,0,0,0,0,0,0,0,0,0,0,4.542,4.542,0,4.5448,4.5448,4.5449,4.5408,4.5406,4.5405,4.5403,4.5429,4.5431,4.5433,0,0,0,0,0,0,0,0,0,0,0,0,0,4.5327,4.5329,4.542,4.542,4.5421,4.5448,4.5449,4.5449,4.5408,4.5406,4.5404,4.5403,4.5428,4.543,4.5433,0,0,0,0,0,0,0,0,0,0,0,0,0,4.5362,4.5329,4.542,4.5404,4.5403,4.5448,4.5449,4.5449,4.5408,4.5406,4.5404,4.5402,4.5427,4.543,4.5433,4.5495,0,0,4.5442,4.5444,0,0,0,0,0,0,0,0,4.536,4.5366,4.5406,4.5405,4.5404,4.5422,4.5425,4.5464,4.5409,4.5406,4.5403,4.5401,4.5428,4.5431,4.5441,4.5496,4.5497,4.5443,4.5444,4.5446,4.5446,0,0,0,0,0,0,0,4.5358,4.5364,4.5431,4.5406,4.5405,4.5394,4.5396,4.5432,4.5429,4.5406,4.5403,4.5407,4.5427,4.5438,4.5441,4.5497,4.5442,4.5445,4.5447,4.5448,4.5603,4.5605,0,0,0,0,0,0,4.5358,4.5362,4.543,4.5432,4.5376,4.5397,4.54,4.5418,4.5428,4.5428,4.5409,4.5405,4.5434,4.5437,4.5442,4.5513,4.5446,4.5448,4.545,4.5601,4.5603,4.5606,0,0,0,0,0,0,4.5356,4.5364,4.5429,4.5396,4.5404,4.5401,4.5422,4.542,4.5431,4.543,4.5429,4.5421,4.5432,4.5437,4.5482,4.5514,4.545,4.5453,4.5598,4.5601,4.5605,4.5658,0,0,0,0,0,0,4.5354,4.5364,4.5388,4.5397,4.5406,4.547,4.5424,4.5422,4.5437,4.5432,4.5441,4.5441,4.5431,4.5477,4.5485,4.5517,4.5455,4.5595,4.5599,4.5603,4.5653,4.5662,4.5671,0,0,0,0,0,4.535,4.5402,4.539,4.5398,4.5436,4.5472,4.5476,4.5465,4.544,4.5463,4.5463,4.5441,4.5509,4.5482,4.549,4.5523,4.5593,4.5598,4.5603,4.5649,4.5661,4.567,0,0,0,0,0,0,4.5395,4.5403,4.5389,4.5445,4.5459,4.5465,4.5494,4.5478,4.5498,4.5492,4.5476,4.5479,4.5526,4.5529,4.5499,4.5583,4.5547,4.5554,4.5579,4.559,4.5598,4.5596,4.5457,0,0,0,0,0,4.5412,4.5441,4.5446,4.5495,4.5502,4.5497,4.5512,4.5503,4.5515,4.552,4.5522,4.5534,4.5558,4.5574,4.5597,4.5654,4.5654,4.568,4.5689,4.5696,4.5702,4.5731,4.5742,4.5623,4.5623,4.5623,0,0,4.5446,4.5454,4.5473,4.5504,4.5513,4.5542,4.5502,4.5535,4.5556,4.5524,4.5566,4.5569,4.5581,4.5631,4.5654,4.5636,4.5735,4.5703,4.5709,4.5711,4.5738,4.5749,4.5759,4.5626,4.5626,4.5625,0,0,4.5523,4.5533,4.5574,4.5584,4.5598,4.5595,4.5605,4.5614,4.5614,4.5657,4.5633,4.5657,4.57,4.5709,4.5719,4.5799,4.5779,4.5807,4.5852,4.5881,4.589,4.5899,4.5926,4.5936,4.5813,4.5813,4.5813,0,4.5563,4.5608,4.5597,4.5631,4.5645,4.5619,4.5659,4.5669,4.569,4.5699,4.5679,4.5731,4.5737,4.5789,4.5808,4.5818,4.5827,4.5805,4.589,4.5898,4.5906,4.5931,4.5942,4.5816,4.5816,4.5816,4.5815,0,4.5655,4.5687,4.5718,4.574,4.5757,4.5794,4.5788,4.5806,4.5795,4.5793,4.5836,4.5842,4.5865,4.5877,4.5866,4.5927,4.5915,4.5893,4.5856,4.5921,4.5944,4.5954,4.5821,4.582,4.5819,4.5818,0,0,4.576,4.5776,4.5787,4.5796,4.581,4.5834,4.5869,4.5893,4.5908,4.5923,4.5952,4.5988,4.5968,4.5979,4.5969,4.5994,4.6056,4.5969,4.5969,4.5983,4.6122,4.6137,4.6149,4.6043,4.6045,4.6047,4.612,0,4.5836,4.5899,4.589,4.595,4.5978,4.5953,4.5984,4.5996,4.5995,4.6017,4.6016,4.6042,4.6014,4.602,4.6044,4.6043,4.6083,4.6038,4.6068,4.6069,4.6064,4.6162,4.6178,4.6247,4.613,4.6131,4.6132,0,4.5933,4.5952,4.6015,4.6024,4.6036,4.6064,4.6084,4.6106,4.6118,4.6116,4.6129,4.6114,4.6148,4.6112,4.6158,4.6128,4.6139,4.6141,4.6143,4.6144,4.6104,4.6164,4.6269,4.6279,4.6147,4.6146,4.6145,0,4.6001,4.6043,4.6086,4.6095,4.6107,4.6127,4.6132,4.6142,4.6157,4.6174,4.6183,4.6204,4.6215,4.623,4.6221,4.6196,4.6268,4.6232,4.6266,4.6266,4.6281,4.628,4.6388,4.6291,4.6291,4.6291,4.6291,0,4.6085,4.6124,4.6117,4.6143,4.6186,4.6174,4.6216,4.6219,4.6228,4.6253,4.6233,4.6257,4.6244,4.6267,4.626,4.6298,4.6304,4.6301,4.6299,4.6302,4.6302,4.6309,4.6303,4.6294,4.6293,4.6293,4.6292,0,4.6168,4.6165,4.621,4.6218,4.6221,4.6252,4.6258,4.6281,4.628,4.6312,4.6318,4.6315,4.6341,4.6333,4.6361,4.6356,4.6404,4.6396,4.64,4.6398,4.6432,4.6428,4.6547,4.6561,4.6457,4.6458,4.6458,0,4.6222,4.6251,4.6263,4.6279,4.6286,4.6312,4.6327,4.6317,4.6333,4.6348,4.637,4.6394,4.6412,4.6454,4.6453,4.6473,4.6465,4.6505,4.6467,4.647,4.6463,4.6461,4.6463,4.6512,4.6513,4.6514,4.6515,0,4.6316,4.6313,4.6335,4.6358,4.6376,4.6392,4.6407,4.6421,4.6412,4.643,4.6457,4.6471,4.6499,4.6523,4.6542,4.6546,4.6528,4.6527,4.6535,4.6539,4.6539,4.6538,4.6419,4.6524,4.6523,4.6522,4.6522,4.6521,4.6384,4.6409,4.6421,4.6447,4.6457,4.6471,4.6493,4.6495,4.6517,4.654,4.6532,4.6562,4.6572,4.6595,4.6602,4.6625,4.6609,4.6622,4.6625,4.6628,4.6632,4.6537,4.6628,4.6628,4.6628,4.6627,4.6627,0,4.6476,4.6483,4.6507,4.6528,4.6548,4.6532,4.6547,4.6564,4.6591,4.6602,4.6621,4.665,4.6673,4.6675,4.6695,4.6713,4.6705,4.6718,4.6716,4.6717,4.6645,4.6635,4.6724,4.6724,4.6724,4.6724,4.6724,4.6724,4.6527,4.6567,4.6566,4.661,4.6616,4.6646,4.6656,4.6668,4.6677,4.6712,4.6731,4.6732,4.6739,4.676,4.678,4.6779,4.6787,4.6803,4.68,4.6732,4.6722,4.6713,4.6703,4.6806,4.6806,4.687,4.687,4.6871]}]]